User: anonymous   Login
Location: NJAA Observatory
(40.6819°N, 74.8979°W)
Time: 01:49:00
(UTC-04:00)
Language:

ATLAS CENTAUR R/B - Orbit

View from above orbital plane
View from above orbital plane
View from above satellite
View from above satellite

Ground track
Ground track

The orbit data is extracted from the following two-line orbital elements,

1 28385U 04034B   17227.87646622 0.00048000  00000-0  67031-3 0    02
2 28385  57.3061 197.1067 3526388 167.1812 205.0211  8.44868699    05
Epoch (UTC): 15 August 2017 21:02:06
Eccentricity: 0.3526388
inclination: 57.3061°
perigee height: 214 km
apogee height: 7396 km
right ascension of ascending node: 197.1067°
argument of perigee: 167.1812°
revolutions per day: 8.44868699
mean anomaly at epoch: 205.0211°
orbit number at epoch: 0

The dashed part of the orbit path shows where the satellite is in the earth's shadow,  

DLR